Weather History for Fresno, CA

Change the Weather History Date:

Tuesday, May 21, 2013

  Actual Average Record
Temperature  
Mean Temperature 79 °F 71 °F  
Max Temperature 92 °F 86 °F 104 °F (1892)
Min Temperature 65 °F 57 °F 42 °F (1975)
Degree Days  
Heating Degree Days 0    
Month to date heating degree days 1  
Since 1 July heating degree days 1742  
Cooling Degree Days 14    
Month to date cooling degree days 211  
Year to date cooling degree days 358  
Growing Degree Days 28 (Base 50)    
Moisture  
Dew Point 38 °F    
Average Humidity 28    
Maximum Humidity 45    
Minimum Humidity 11    
Precipitation  
Precipitation 0.00 in 0.01 in 0.28 in (2006)
Month to date precipitation 0.07 0.32  
Year to date precipitation 2.28 7.52  
Since 1 July precipitation 5.67 11.18  
Snow  
Snow 0.00 in - - ()
Month to date snowfall 0.0  
Since 1 July snowfall 0.0  
Snow Depth 0.00 in    
Sea Level Pressure  
Sea Level Pressure 29.86 in    
Wind  
Wind Speed 7 mph (NW)    
Max Wind Speed 20 mph    
Max Gust Speed 25 mph    
Visibility 10 miles    
Events      
T = Trace of Precipitation, MM = Missing Value Source: NWS Daily Summary

Daily Weather History Graph

Daily Weather History Graph

Search for Another Location

Airport:

Trip Planner

Search our weather history database for the weather conditions in past years. The results will help you decide how hot, cold, wet, or windy it might be!

Date:

Astronomy

May. 21, 2013 Rise Set
Actual Time 5:46 AM PDT 8:04 PM PDT
Civil Twilight 5:17 AM PDT 8:34 PM PDT
Nautical Twilight 4:41 AM PDT 9:10 PM PDT
Astronomical Twilight 4:01 AM PDT 9:50 PM PDT
Moon 4:28 PM PDT (5/21) 3:11 AM PDT (5/21)
Length of Visible Light 15h 16m
Length of Day
14h 18m
Waxing Gibbous, 85% of the Moon is Illuminated
May 21
Waxing Gibbous
May 24
Full
May 31
Last Quarter
Jun 8
New
Jun 16
First Quarter

Hourly Weather History & Observations

Time (PDT) Temp. Dew Point Humidity Pressure Visibility Wind Dir Wind Speed Gust Speed Precip Events Conditions
12:53 AM 73.0 °F 37.9 °F 28% 29.89 in 10.0 mi WNW 6.9 mph - N/A   Clear
1:53 AM 70.0 °F 41.0 °F 35% 29.88 in 10.0 mi WNW 5.8 mph - N/A   Clear
2:53 AM 68.0 °F 41.0 °F 37% 29.87 in 10.0 mi NNW 3.5 mph - N/A   Clear
3:53 AM 66.9 °F 41.0 °F 39% 29.87 in 10.0 mi Calm Calm - N/A   Partly Cloudy
4:53 AM 66.0 °F 39.9 °F 38% 29.86 in 10.0 mi Calm Calm - N/A   Scattered Clouds
5:53 AM 64.9 °F 43.0 °F 45% 29.86 in 10.0 mi Calm Calm - N/A   Overcast
6:53 AM 66.9 °F 44.1 °F 44% 29.88 in 10.0 mi NW 3.5 mph - N/A   Overcast
7:53 AM 73.0 °F 45.0 °F 37% 29.91 in 10.0 mi NW 8.1 mph - N/A   Mostly Cloudy
8:53 AM 75.9 °F 33.1 °F 21% 29.92 in 10.0 mi NW 8.1 mph - N/A   Mostly Cloudy
9:53 AM 80.1 °F 28.0 °F 15% 29.91 in 10.0 mi WNW 4.6 mph - N/A   Mostly Cloudy
10:53 AM 82.9 °F 32.0 °F 16% 29.91 in 10.0 mi WNW 6.9 mph - N/A   Mostly Cloudy
11:53 AM 84.9 °F 33.1 °F 16% 29.89 in 10.0 mi NW 5.8 mph - N/A   Scattered Clouds
12:53 PM 88.0 °F 30.0 °F 12% 29.87 in 10.0 mi WSW 4.6 mph - N/A   Scattered Clouds
1:53 PM 90.0 °F 28.9 °F 11% 29.86 in 10.0 mi NW 10.4 mph - N/A   Scattered Clouds
2:53 PM 90.0 °F 33.1 °F 13% 29.84 in 10.0 mi NNW 11.5 mph 19.6 mph N/A   Partly Cloudy
3:53 PM 90.0 °F 39.0 °F 17% 29.82 in 10.0 mi WNW 16.1 mph 23.0 mph N/A   Scattered Clouds
4:53 PM 89.1 °F 41.0 °F 19% 29.81 in 10.0 mi NW 17.3 mph 24.2 mph N/A   Partly Cloudy
5:53 PM 87.1 °F 39.0 °F 18% 29.79 in 10.0 mi NW 12.7 mph 19.6 mph N/A   Partly Cloudy
6:53 PM 84.9 °F 35.1 °F 17% 29.79 in 10.0 mi WNW 18.4 mph - N/A   Partly Cloudy
7:53 PM 80.1 °F 41.0 °F 25% 29.80 in 10.0 mi WNW 13.8 mph - N/A   Clear
8:53 PM 73.9 °F 39.0 °F 28% 29.82 in 10.0 mi NW 16.1 mph 28.8 mph N/A   Clear
9:53 PM 69.1 °F 37.0 °F 31% 29.84 in 10.0 mi NW 21.9 mph 28.8 mph N/A   Clear
10:53 PM 66.0 °F 37.9 °F 36% 29.85 in 10.0 mi NW 19.6 mph 31.1 mph N/A   Clear
11:53 PM 63.0 °F 39.0 °F 41% 29.86 in 10.0 mi WNW 16.1 mph - N/A   Clear